Regional Weather Roundup
Issued by NWS Little Rock, AR

Home | Current Version | Previous Version | Text Only | Print | Product List | Glossary Off
Versions: 1 2 3 4 5 6 7 8 9 10 11 12 13 14 15 16 17 18 19 20 21 22 23 24 25 26 27 28 29 30 31 32 33 34 35 36 37 38 39 40 41 42 43 44 45 46 47 48 49 50

000
ASUS44 KLZK 230505
RWRLZK

WEATHER ROUNDUP FOR ARKANSAS
NATIONAL WEATHER SERVICE LITTLE ROCK AR
1200 AM CDT TUE SEP 23 2014

NOTE: "FAIR" INDICATES FEW OR NO CLOUDS BELOW 12,000 FEET WITH NO
SIGNIFICANT WEATHER AND/OR OBSTRUCTIONS TO VISIBILITY.

ARZ001-003-010-029-230600-
NORTHWEST ARKANSAS

CITY           SKY/WX    TMP DP  RH WIND       PRES   REMARKS
FAYETTEVILLE   CLEAR     51  51 100 CALM      30.23S
FORT SMITH     CLEAR     62  57  83 CALM      30.20S
HARRISON       CLEAR     54  52  93 S3        30.24F
BENTONVILLE    PTCLDY    59  52  77 SE3       30.24S
ROGERS         PTCLDY    58  53  84 CALM      30.24F
SILOAM SPGS    CLEAR     57  48  72 E3        30.24S
HIGHFILL       CLEAR     55  52  89 NE3       30.23F
$$

ARZ004-005-016-230600-
NORTH CENTRAL ARKANSAS

CITY           SKY/WX    TMP DP  RH WIND       PRES   REMARKS
BATESVILLE     CLEAR     55  48  76 CALM      30.23F
FLIPPIN        CLEAR     54  46  76 CALM      30.24S
MTN HOME       CLEAR     56  52  86 CALM      30.23F
$$

ARZ040-041-230600-
WEST CENTRAL ARKANSAS

CITY           SKY/WX    TMP DP  RH WIND       PRES   REMARKS
MENA             N/A     54  52  94 CALM        N/A
MOUNT IDA      CLEAR     56  54  93 CALM      30.18S
$$

ARZ009-017-025-026-028-230600-
NORTHEAST ARKANSAS

CITY           SKY/WX    TMP DP  RH WIND       PRES   REMARKS
CORNING          N/A     57  50  77 NE7       30.25S
JONESBORO      CLEAR     58  49  72 NE5       30.23S
NEWPORT        CLEAR     55  51  86 N7        30.23F
WALNUT RIDGE   CLEAR     55  41  58 N6        30.22F
BLYTHEVILLE    CLEAR     53  50  89 CALM      30.24R
$$

ARZ022-023-033-042-044-230600-
CENTRAL ARKANSAS

CITY           SKY/WX    TMP DP  RH WIND       PRES   REMARKS
LITTLE ROCK    PTCLDY    59  50  72 NE6       30.22S
N LITTLE ROCK  PTCLDY    62  53  72 NE7       30.22S
JACKSONVILLE   CLEAR     56  50  82 CALM      30.22S
SEARCY         CLEAR     58  50  75 N3        30.23F
HOT SPRINGS    CLEAR     62  52  69 E3        30.20S
RUSSELLVILLE   CLEAR     61  53  75 E3        30.21S
CLINTON        FAIR      55  54  94 CALM      30.24S
$$

ARZ036-230600-
EAST ARKANSAS

CITY           SKY/WX    TMP DP  RH WIND       PRES   REMARKS
WEST MEMPHIS   CLEAR     58  52  80 NE5       30.20S
$$

ARZ050-053-066-070-073-230600-
SOUTHWEST ARKANSAS

CITY           SKY/WX    TMP DP  RH WIND       PRES   REMARKS
ARKADELPHIA    FAIR      62  56  81 NE6       30.19F
CAMDEN         CLEAR     59  52  77 NE3       30.18S
TEXARKANA      CLEAR     57  55  93 NE3       30.18S
EL DORADO      CLEAR     62  54  74 N5        30.18R
DE QUEEN       CLEAR     58  56  93 E3        30.18S
$$

ARZ056-057-069-230600-
SOUTHEAST ARKANSAS

CITY           SKY/WX    TMP DP  RH WIND       PRES   REMARKS
PINE BLUFF     CLEAR     62  53  72 N6        30.21R
STUTTGART      CLEAR     57  50  77 N7        30.22S
MONTICELLO     CLEAR     60  53  77 NE3       30.18R

$$





USA.gov is the U.S. government's official web portal to all federal, state and local government web resources and services.